Weather History for Ukiah, CA

Change the Weather History Date:

Wednesday, February 13, 2013

  Actual Average Record
Temperature  
Mean Temperature 51 °F 49 °F  
Max Temperature 69 °F 60 °F 79 °F (1977)
Min Temperature 32 °F 39 °F 20 °F (1922)
Degree Days  
Heating Degree Days 14 16  
Month to date heating degree days 218 213  
Since 1 July heating degree days 1886 2013  
Cooling Degree Days 0 0  
Month to date cooling degree days 0 0  
Year to date cooling degree days 0 0  
Growing Degree Days 1 (Base 50)    
Moisture  
Dew Point 38 °F    
Average Humidity 66    
Maximum Humidity 96    
Minimum Humidity 36    
Precipitation  
Precipitation 0.00 in 0.24 in 2.57 in (1962)
Month to date precipitation 0.18 2.74  
Year to date precipitation 1.43 9.75  
Since 1 July precipitation 24.13 23.72  
Snow  
Snow 0.00 in - - ()
Month to date snowfall 0.0  
Since 1 July snowfall 0.0  
Snow Depth 0.00 in    
Sea Level Pressure  
Sea Level Pressure 30.29 in    
Wind  
Wind Speed 0 mph (West)    
Max Wind Speed 6 mph    
Max Gust Speed 7 mph    
Visibility 10 miles    
Events      
T = Trace of Precipitation, MM = Missing Value Source: NWS Daily Summary

Daily Weather History Graph

Daily Weather History Graph

Search for Another Location

Airport:

Trip Planner

Search our weather history database for the weather conditions in past years. The results will help you decide how hot, cold, wet, or windy it might be!

Date:

Astronomy

Feb. 13, 2013 Rise Set
Actual Time 7:06 AM PST 5:48 PM PST
Civil Twilight 6:38 AM PST 6:15 PM PST
Nautical Twilight 6:07 AM PST 6:47 PM PST
Astronomical Twilight 5:36 AM PST 7:18 PM PST
Moon 8:40 AM PST (2/13) 9:54 PM PST (2/13)
Length of Visible Light 11h 36m
Length of Day
10h 41m
Waxing Crescent, 14% of the Moon is Illuminated
Feb 13
Waxing Crescent
Feb 17
First Quarter
Feb 25
Full
Mar 4
Last Quarter
Mar 11
New

Hourly Weather History & Observations

Time (PST) Temp. Windchill Dew Point Humidity Pressure Visibility Wind Dir Wind Speed Gust Speed Precip Events Conditions
12:56 AM 37.9 °F - 34.0 °F 86% 30.35 in 10.0 mi Calm Calm - N/A   Clear
1:56 AM 37.9 °F - 34.0 °F 86% 30.35 in 10.0 mi Calm Calm - N/A   Clear
2:56 AM 34.0 °F - 32.0 °F 92% 30.35 in 10.0 mi Calm Calm - N/A   Clear
3:56 AM 35.1 °F - 32.0 °F 89% 30.33 in 10.0 mi Calm Calm - N/A   Clear
4:56 AM 35.1 °F - 32.0 °F 89% 30.34 in 10.0 mi Calm Calm - N/A   Clear
5:56 AM 34.0 °F - 32.0 °F 92% 30.35 in 10.0 mi Calm Calm - N/A   Clear
6:56 AM 33.1 °F - 30.9 °F 92% 30.35 in 10.0 mi Calm Calm - N/A   Clear
7:56 AM 35.1 °F 32.2 °F 33.1 °F 92% 30.36 in 10.0 mi NNW 3.5 mph - N/A   Clear
8:56 AM 41.0 °F - 36.0 °F 82% 30.37 in 10.0 mi Calm Calm - N/A   Clear
9:56 AM 46.9 °F - 39.0 °F 74% 30.35 in 10.0 mi Calm Calm - N/A   Clear
10:56 AM 53.1 °F - 37.9 °F 57% 30.35 in 10.0 mi Calm Calm - N/A   Clear
11:56 AM 55.9 °F - 37.0 °F 49% 30.32 in 10.0 mi Calm Calm - N/A   Clear
12:56 PM 61.0 °F - 37.9 °F 42% 30.28 in 10.0 mi Calm Calm - N/A   Clear
1:56 PM 66.0 °F - 39.9 °F 38% 30.25 in 10.0 mi Calm Calm - N/A   Clear
2:56 PM 66.9 °F - 41.0 °F 39% 30.23 in 10.0 mi Calm Calm - N/A   Clear
3:56 PM 69.1 °F - 41.0 °F 36% 30.21 in 10.0 mi Calm Calm - N/A   Clear
4:56 PM 62.1 °F - 44.1 °F 52% 30.20 in 10.0 mi WNW 3.5 mph - N/A   Clear
5:56 PM 57.9 °F - 43.0 °F 58% 30.20 in 10.0 mi Calm Calm - N/A   Clear
6:56 PM 54.0 °F - 43.0 °F 66% 30.22 in 9.0 mi Calm Calm - N/A   Clear
7:56 PM 51.1 °F - 43.0 °F 74% 30.23 in 10.0 mi Calm Calm - N/A   Clear
8:56 PM 48.0 °F - 42.1 °F 80% 30.24 in 10.0 mi Calm Calm - N/A   Clear
9:56 PM 45.0 °F 43.5 °F 41.0 °F 86% 30.25 in 10.0 mi South 3.5 mph - N/A   Clear
10:56 PM 45.0 °F - 41.0 °F 86% 30.25 in 10.0 mi Calm Calm - N/A   Clear
11:56 PM 44.1 °F - 39.9 °F 85% 30.25 in 10.0 mi Calm Calm - N/A   Clear